Showing default

QIANFAN-130, 69076

Orbit data source: Space-Track

QIANFAN-130, 69076 is a Chinese payload satellite in LEO that was launched on Tue, 12 May 2026 UTC via a CHANG ZHENG 6A launch vehicle from the Taiyaun Space Center, China (TSC). Payload-class satellites include a variety of spacecraft equipped with specific instruments for various scientific and technological missions. These include communications satellites like Starlink; space stations such as the ISS; scientific satellites like the Hubble; Earth observation satellites from companies like Planet Labs, Umbra, and HawkEye 360; GPS; miniature CubeSats for education and research; and military/defense satellites.

Loading next visibility...
Identifier
69076, 2026-104D
Orbit
LEO
Country
Flag of CNCN / PRC
Related business
Manufacturer
SECM
Mission
Operational spacecraft
Bus & Motor
QIANFAN, Unknown motor
Mass
267 kg wet, ~267 kg dry
Launch date (UTC)
2026-05-12 (4 weeks ago)
Launch vehicle
CHANG ZHENG 6A
Launch site
Taiyaun Space Center, China (TSC)
Object type
Payload
Rocket body
Debris
Shape & HBR
Unknown
Radar Cross Section
Large (>1 m²)

Expand to show TLE details & history
Last TLE update: 2 days ago

TLE from 2 days ago
0 QIANFAN-130
1 69076U 26104D   26155.28542630  .00000119  00000-0  50625-4 0  9993
2 69076  88.9863 343.0900 0004531 128.7135 231.4460 14.18734805  3252
Epoch: 2026-06-04T06:51Z
TLE epoch observation values (Epoch: 2026-06-04T06:51:00.832Z)
Latitude
-0.00002°
Longitude
-12.39535°
Altitude
834.723 km
Speed
7.434 km/s
True Right ascension
22h 52m 21s
True Declination
0° 00' 00"
Sunlit
Object was in daylight at epoch
Visualization orbit readout
Latitude
Unknown
Longitude
Unknown
Altitude
Unknown
Speed
Unknown
Apparent Right ascension
Unknown
Apparent Declination
Unknown
Sunlit
N/A
Visualization observer readout
Local Sidereal Time
03:34:27
Azimuth
Unknown
Elevation
Unknown
Doppler factor
Unknown
Orbital elements
Apogee altitude
829.852 km
Perigee altitude
823.323 km
Semi-major axis
7,204.725 km
Eccentricity
0.00045
Inclination
88.9863°
RAAN
343.09°
Arg. of periapsis
128.7135°
True anomaly
231.40541°
Mean anomaly
231.446°
Eccentric anomaly
231.4257°
Mean motion
3.54909 °/min
Orbital period
101.43 mins
BSTAR
0.000050625
Loading maneuver chart data...
Computing Atmospheric mass density...
Loading historical data...
Loading historical data...
Loading historical data...
Loading historical data...
Loading historical data...
Loading historical data...
Loading historical data...

Documentation

Showing up to 5 results
|